Date,TemperatureHighF,TemperatureAvgF,TemperatureLowF,DewpointHighF,DewpointAvgF,DewpointLowF,HumidityHigh,HumidityAvg,HumidityLow,PressureMaxIn,PressureMinIn,WindSpeedMaxMPH,WindSpeedAvgMPH,GustSpeedMaxMPH,PrecipitationSumIn
2013-5-14,91.2,73.5,49.3,56.5,49.2,34.0,86,47,14,0.00,0.00,11,3,24,0.00
2013-5-15,84.5,61.5,41.3,48.5,44.8,40.3,97,61,23,0.00,0.00,9,2,20,0.00
2013-5-16,75.0,63.5,51.5,52.2,48.7,45.0,88,61,38,0.00,0.00,10,4,20,0.00
2013-5-17,73.1,58.5,42.0,46.8,44.5,40.9,96,65,34,0.00,0.00,8,3,16,0.00
2013-5-18,84.1,61.8,40.0,47.4,43.4,39.1,97,59,23,0.00,0.00,10,3,22,0.00
2013-5-19,85.8,65.7,42.9,49.2,42.8,33.8,93,51,16,0.00,0.00,8,3,15,0.00
2013-5-20,90.7,66.4,44.9,51.0,44.1,33.1,97,58,13,0.00,0.00,7,2,15,0.00
2013-5-21,77.0,60.6,45.2,48.0,39.1,30.5,95,53,20,0.00,0.00,11,4,25,0.00
2013-5-22,71.7,55.4,43.9,30.6,27.9,22.5,57,37,16,0.00,0.00,9,6,25,0.00
2013-5-25,78.1,67.0,49.2,46.4,44.4,42.8,85,47,30,0.00,0.00,7,3,15,0.00
2013-5-26,74.4,61.1,45.2,50.6,47.2,43.5,96,64,37,0.00,0.00,10,4,23,0.00
2013-5-27,64.5,55.9,46.2,55.9,50.6,44.1,96,83,62,0.00,0.00,6,2,14,0.00
2013-5-28,74.5,60.4,55.0,57.5,55.3,54.2,97,85,50,0.00,0.00,4,2,11,0.00
2013-5-29,80.1,68.9,50.9,53.4,50.4,47.0,88,54,35,0.00,0.00,7,4,18,0.00
2013-5-30,85.3,63.3,41.1,46.8,42.3,32.9,97,56,19,0.00,0.00,7,2,15,0.00
2013-5-31,92.8,68.3,45.2,54.6,47.2,42.7,93,55,19,0.00,0.00,7,2,14,0.00
2013-6-1,97.5,72.1,49.0,56.3,50.2,41.4,96,55,18,0.00,0.00,9,2,19,0.00
2013-6-2,86.7,67.1,48.4,54.7,50.0,46.4,94,60,29,0.00,0.00,6,2,12,0.00
2013-6-3,70.3,58.6,46.2,51.5,49.2,44.8,96,73,49,0.00,0.00,8,4,17,0.00
2013-6-4,68.4,56.5,53.9,51.6,50.0,49.1,87,79,55,0.00,0.00,6,3,13,0.00
2013-6-5,73.7,58.5,52.4,54.1,50.2,48.8,89,76,48,0.00,0.00,7,3,12,0.00
2013-6-6,78.9,60.7,50.8,56.5,51.2,48.0,93,74,46,0.00,0.00,5,3,14,0.00
2013-6-7,93.1,67.5,50.8,62.6,55.2,49.6,97,70,35,0.00,0.00,4,2,9,0.00
2013-6-8,92.3,68.0,53.5,62.7,55.6,51.6,96,69,36,0.00,0.00,8,3,16,0.00
2013-6-9,68.5,59.7,56.2,53.8,52.8,52.0,89,78,59,0.00,0.00,7,4,20,0.00
2013-6-10,63.1,58.4,55.4,55.7,54.1,51.9,96,86,69,0.00,0.00,6,2,14,0.00
2013-6-11,79.4,64.4,51.3,57.8,54.0,50.1,96,72,40,0.00,0.00,7,2,13,0.00
2013-6-12,87.7,63.8,43.0,49.7,40.7,21.3,98,56,9,0.00,0.00,11,3,22,0.00
2013-6-13,86.4,64.5,40.8,47.8,42.4,38.6,95,53,19,0.00,0.00,9,3,17,0.00
2013-6-14,89.2,66.5,46.3,50.4,44.0,18.6,95,55,9,0.00,0.00,6,2,13,0.00
2013-6-15,82.8,61.6,43.1,53.7,48.8,41.7,96,67,35,0.00,0.00,5,2,13,0.00
2013-6-16,88.8,65.5,42.9,52.2,47.0,41.6,96,60,23,0.00,0.00,8,2,21,0.00
2013-6-17,80.1,59.8,44.5,52.8,49.1,43.2,95,71,38,0.00,0.00,8,2,18,0.00
2013-6-18,75.2,62.7,47.7,51.3,47.0,42.7,96,61,32,0.00,0.00,9,4,20,0.00
2013-6-19,81.3,64.2,46.6,47.5,43.3,35.6,89,53,20,0.00,0.00,9,4,21,0.00
2013-6-20,84.5,64.8,43.8,47.6,44.5,39.4,94,55,23,0.00,0.00,8,3,18,0.00
2013-6-21,88.6,67.5,43.2,49.8,44.4,38.2,95,52,20,0.00,0.00,7,2,16,0.00
2013-6-22,91.5,70.8,47.5,50.7,46.4,37.3,91,50,17,0.00,0.00,7,3,20,0.00
2013-6-23,72.5,63.4,55.0,59.0,55.3,49.6,91,76,59,0.00,0.00,6,3,14,0.00
2013-6-24,63.6,59.7,57.6,57.5,55.2,53.4,96,85,74,0.00,0.00,5,2,12,0.00
2013-6-25,64.3,61.5,58.7,61.7,59.8,57.6,97,95,88,0.00,0.00,5,1,12,0.00
2013-6-26,80.7,68.1,60.8,64.8,61.3,59.0,97,81,52,0.00,0.00,6,2,11,0.00
2013-6-27,90.9,71.6,57.1,66.6,61.0,56.2,98,74,41,0.00,0.00,5,2,11,0.00
2013-6-28,100.8,77.0,57.8,69.2,60.7,43.9,98,65,16,0.00,0.00,6,2,14,0.00
2013-6-29,103.4,78.6,55.9,69.2,60.1,53.7,97,62,20,0.00,0.00,5,2,12,0.00
2013-6-30,95.3,74.1,55.2,65.9,60.0,54.1,97,67,35,0.00,0.00,4,2,9,0.00
2013-7-1,96.1,73.5,53.6,67.6,59.8,52.5,96,67,36,0.00,0.00,4,2,10,0.00
2013-7-2,91.2,70.7,58.4,65.1,58.7,55.1,92,69,38,0.00,0.00,9,2,23,0.00
2013-7-3,90.3,70.2,56.9,64.1,58.4,55.5,95,70,37,0.00,0.00,6,2,12,0.00
2013-7-4,100.7,76.9,61.1,64.9,57.5,41.0,92,57,14,0.00,0.00,6,2,20,0.00
2013-7-5,82.6,66.2,50.0,57.6,52.5,47.8,94,65,38,0.00,0.00,5,2,14,0.00
2013-7-6,78.7,62.5,50.3,57.3,52.8,48.7,96,73,46,0.00,0.00,6,2,16,0.00
2013-7-7,82.1,62.3,52.2,59.4,52.8,49.9,94,74,45,0.00,0.00,7,3,14,0.00
2013-7-8,83.6,63.3,52.2,58.3,52.9,49.7,94,73,40,0.00,0.00,6,2,12,0.00
2013-7-9,92.5,67.7,52.1,57.2,52.4,45.0,98,67,23,0.00,0.00,7,2,13,0.00
2013-7-10,81.8,62.4,50.2,57.6,51.6,48.5,95,72,36,0.00,0.00,6,2,14,0.00
2013-7-11,76.2,59.5,50.1,56.2,51.0,47.3,95,76,49,0.00,0.00,5,2,12,0.00
2013-7-12,79.0,61.2,51.4,57.6,52.3,49.1,93,75,48,0.00,0.00,5,2,11,0.00
2013-7-13,85.5,62.9,44.8,58.2,50.8,43.5,97,70,31,0.00,0.00,6,2,12,0.00
2013-7-14,79.8,60.9,50.4,56.9,52.2,48.8,97,77,43,0.00,0.00,5,2,11,0.00
2013-7-15,72.5,57.7,50.3,53.8,50.7,48.8,95,79,51,0.00,0.00,6,3,15,0.00
2013-7-16,70.4,59.1,53.4,55.6,52.5,50.8,93,80,58,0.00,0.00,6,2,13,0.00
2013-7-17,81.7,62.1,46.4,59.3,53.4,45.5,98,77,43,0.00,0.00,7,2,13,0.00
2013-7-18,83.2,63.6,53.0,60.1,54.8,51.0,98,77,42,0.00,0.00,5,2,11,0.00
2013-7-19,85.6,63.8,51.2,61.2,53.8,49.4,97,74,40,0.00,0.00,5,2,11,0.00
2013-7-20,85.6,62.6,49.1,60.3,52.7,47.3,98,74,41,0.00,0.00,6,2,12,0.00
2013-7-21,81.9,63.1,51.8,56.5,51.7,48.6,91,70,38,0.00,0.00,6,2,14,0.00
2013-7-22,84.5,63.5,47.6,57.3,52.4,45.7,96,71,34,0.00,0.00,7,2,16,0.00
2013-7-23,79.8,67.5,58.0,58.0,55.5,52.7,88,68,44,0.00,0.00,5,2,13,0.00
2013-7-24,87.5,66.7,52.2,59.6,54.7,50.6,96,70,33,0.00,0.00,4,2,10,0.00
2013-7-25,82.5,63.5,53.0,57.3,53.4,51.1,95,73,41,0.00,0.00,5,2,10,0.00
2013-7-26,80.0,62.6,53.2,58.4,53.1,50.1,93,74,45,0.00,0.00,6,2,13,0.00
2013-7-27,78.3,61.4,52.9,57.4,52.8,50.0,94,76,47,0.00,0.00,6,2,13,0.00
2013-7-28,72.5,59.1,52.7,56.0,51.9,50.1,94,79,52,0.00,0.00,6,3,14,0.00
2013-7-29,71.6,58.7,53.2,54.5,51.9,50.3,90,79,55,0.00,0.00,7,3,14,0.00
2013-7-30,75.4,61.2,53.0,57.4,52.9,50.4,94,76,52,0.00,0.00,6,2,13,0.00
2013-7-31,81.9,64.0,50.6,57.5,53.3,47.8,96,71,43,0.00,0.00,5,2,11,0.00
2013-8-1,83.3,61.6,42.7,55.1,49.8,42.0,97,71,37,0.00,0.00,5,2,15,0.00
2013-8-2,87.1,64.3,42.8,53.6,49.1,41.8,97,65,25,0.00,0.00,6,2,13,0.00
2013-8-3,80.0,59.3,45.9,56.5,50.8,44.4,97,77,42,0.00,0.00,6,2,12,0.00
2013-8-4,77.3,59.1,51.6,55.9,51.5,49.5,95,79,45,0.00,0.00,6,3,12,0.00
2013-8-5,75.1,59.8,51.5,55.6,51.4,49.2,93,76,49,0.00,0.00,6,2,14,0.00
2013-8-6,74.8,59.6,52.0,54.2,51.4,49.3,93,76,48,0.00,0.00,7,3,20,0.00
2013-8-7,71.5,61.1,53.1,55.4,53.6,51.7,95,78,56,0.00,0.00,7,3,14,0.00
2013-8-8,75.7,60.8,48.0,57.3,53.1,46.9,97,78,50,0.00,0.00,7,3,14,0.00
2013-8-9,76.8,60.1,53.2,55.9,52.8,51.2,94,79,46,0.00,0.00,7,3,13,0.00
2013-8-10,78.1,62.3,53.6,57.7,54.1,51.1,92,76,50,0.00,0.00,7,2,14,0.00
2013-8-11,81.4,63.0,54.1,59.1,54.8,52.0,97,78,42,0.00,0.00,6,2,11,0.00
2013-8-12,82.6,62.2,51.7,59.1,53.6,49.1,97,77,40,0.00,0.00,6,2,13,0.00
2013-8-13,92.3,67.3,51.8,58.6,52.9,45.9,97,68,21,0.00,0.00,6,2,15,0.00
2013-8-14,94.8,67.1,44.9,58.2,51.5,43.9,97,66,22,0.00,0.00,5,2,11,0.00
2013-8-15,88.3,68.8,50.4,63.5,58.0,49.3,97,73,41,0.00,0.00,6,2,14,0.00
2013-8-16,90.6,71.6,57.1,63.4,58.2,54.1,97,69,31,0.00,0.00,6,2,12,0.00
2013-8-17,90.1,71.8,50.2,63.9,56.1,48.7,96,63,34,0.00,0.00,4,2,12,0.00
2013-8-18,95.4,74.8,52.0,61.6,57.0,50.4,95,60,27,0.00,0.00,6,2,12,0.00
2013-8-19,87.0,69.1,56.5,62.9,57.2,54.5,94,69,37,0.00,0.00,7,2,15,0.00
2013-8-20,82.4,65.2,57.6,59.5,56.5,54.3,90,76,39,0.00,0.00,8,3,15,0.00
2013-8-21,79.2,64.0,51.1,56.8,54.3,48.6,92,73,45,0.00,0.00,7,3,14,0.00
2013-8-22,75.6,61.6,50.8,56.7,53.4,49.0,95,77,49,0.00,0.00,7,3,14,0.00
2013-8-23,80.2,63.6,49.4,58.0,53.8,47.5,96,73,46,0.00,0.00,5,2,12,0.00
2013-8-24,85.3,67.6,46.7,57.3,53.9,45.7,97,66,37,0.00,0.00,9,3,20,0.00
2013-8-25,79.2,66.1,54.4,61.1,57.5,52.9,95,76,52,0.00,0.00,7,3,18,0.00
2013-8-26,84.5,67.5,54.0,58.3,55.3,50.5,96,70,36,0.00,0.00,6,2,12,0.00
2013-8-27,88.2,66.5,48.0,56.4,52.3,47.1,97,66,31,0.00,0.00,7,2,16,0.00
2013-8-28,85.6,65.5,52.2,61.9,57.4,50.8,98,78,43,0.00,0.00,8,2,15,0.00
2013-8-29,86.0,69.5,57.8,62.3,59.6,56.3,96,74,44,0.00,0.00,7,3,13,0.00
2013-8-30,94.9,71.5,52.7,61.4,56.1,51.0,97,66,24,0.00,0.00,6,2,12,0.00
2013-8-31,88.1,66.6,49.4,58.2,53.7,48.5,97,70,28,0.00,0.00,5,2,15,0.00
2013-9-1,84.4,66.5,54.4,58.8,55.6,52.4,96,71,36,0.00,0.00,7,3,17,0.00
2013-9-2,83.4,67.3,52.5,61.2,57.4,51.6,97,74,42,0.00,0.00,7,2,18,0.00
2013-9-3,81.7,65.1,48.5,56.4,53.2,47.7,97,71,33,0.00,0.00,8,2,16,0.00
2013-9-4,84.0,65.5,48.2,57.1,53.3,47.3,97,70,37,0.00,0.00,6,2,13,0.00
2013-9-5,86.6,66.5,47.4,54.6,51.7,46.4,97,66,27,0.00,0.00,6,2,13,0.00
2013-9-6,94.6,68.6,47.7,54.6,48.7,42.5,96,59,17,0.00,0.00,7,2,14,0.00
2013-9-7,96.4,70.2,47.9,52.4,47.4,33.1,96,56,11,0.00,0.00,8,2,16,0.00
2013-9-8,95.9,66.8,45.3,58.3,51.2,44.2,97,66,21,0.00,0.00,6,1,11,0.00
2013-9-9,97.4,66.2,46.7,59.5,51.7,45.1,96,67,22,0.00,0.00,6,2,12,0.00
2013-9-10,72.6,61.2,51.1,59.7,55.9,49.5,96,84,60,0.00,0.00,7,2,16,0.00
2013-9-11,68.7,63.8,61.1,60.3,59.2,58.0,96,85,70,0.00,0.00,4,2,9,0.00
2013-9-12,82.4,66.0,56.7,61.7,58.0,54.8,95,77,49,0.00,0.00,7,2,13,0.00
2013-9-13,85.5,64.8,52.8,58.0,55.3,50.6,97,76,39,0.00,0.00,4,2,11,0.00
2013-9-14,83.6,62.2,49.1,58.4,53.8,47.9,97,78,41,0.00,0.00,5,2,12,0.00
2013-9-15,81.2,62.5,47.1,57.5,53.8,46.1,97,77,41,0.00,0.00,7,2,15,0.00
2013-9-16,86.6,64.9,49.5,58.3,53.7,48.7,97,73,33,0.00,0.00,6,2,12,0.00
2013-9-17,82.1,64.3,44.9,52.9,47.6,44.0,97,62,29,0.00,0.00,10,3,24,0.00
2013-9-18,85.6,64.4,45.8,50.0,45.5,37.1,94,60,18,0.00,0.00,8,2,17,0.00
2013-9-19,91.2,66.2,42.8,49.7,43.4,25.3,96,56,10,0.00,0.00,6,2,13,0.00
2013-9-20,78.7,58.1,40.9,61.0,50.0,39.9,97,78,45,0.00,0.00,8,3,18,0.00
2013-9-21,71.8,61.9,52.2,60.0,55.1,49.4,97,80,51,0.00,0.00,7,3,17,0.00
2013-9-22,77.0,60.4,46.5,53.9,50.0,45.8,98,74,36,0.00,0.00,7,2,16,0.00
2013-9-23,85.1,64.6,46.3,58.3,53.3,45.4,97,72,35,0.00,0.00,6,2,14,0.00
2013-9-24,80.2,64.5,52.8,54.9,49.5,44.0,96,64,28,0.00,0.00,9,4,21,0.00
2013-9-25,74.4,59.9,45.3,47.8,42.6,37.5,95,58,26,0.00,0.00,9,4,22,0.00
2013-9-26,78.8,60.8,39.1,43.9,38.3,29.9,94,51,17,0.00,0.00,6,2,14,0.00
2013-9-27,81.1,57.7,38.1,44.9,38.6,29.1,96,61,15,0.00,0.00,7,2,17,0.00
2013-9-28,82.6,59.8,40.4,54.1,42.8,27.8,95,64,14,0.00,0.00,6,2,13,0.00
2013-9-29,69.1,60.1,51.5,62.4,57.2,50.0,96,90,75,0.00,0.00,5,2,13,0.00
2013-9-30,74.0,63.5,50.1,65.0,60.1,49.0,97,89,69,0.00,0.00,4,2,10,0.00
2013-10-1,80.6,58.9,42.1,51.9,45.6,39.8,98,71,24,0.00,0.00,6,2,14,0.00
2013-10-2,82.1,61.1,43.5,49.7,40.5,23.4,97,58,12,0.00,0.00,6,2,18,0.00
2013-10-3,78.6,65.8,54.7,36.9,28.7,12.6,46,28,8,0.00,0.00,11,6,25,0.00
2013-10-4,84.8,64.3,44.7,37.5,27.4,16.3,69,33,8,0.00,0.00,12,4,25,0.00
2013-10-5,87.8,58.0,35.6,37.7,32.1,20.5,91,52,9,0.00,0.00,5,1,11,0.00
2013-10-6,87.5,57.6,36.0,39.6,35.3,29.4,93,54,13,0.00,0.00,6,1,11,0.00
2013-10-7,86.2,57.4,36.3,45.9,37.6,29.4,93,59,14,0.00,0.00,4,1,9,0.00
2013-10-8,80.1,55.8,38.5,45.4,41.0,37.0,96,65,23,0.00,0.00,5,2,11,0.00
2013-10-9,78.2,58.2,40.7,44.2,39.6,32.3,92,57,19,0.00,0.00,7,2,17,0.00
2013-10-10,74.5,55.9,39.6,48.9,41.9,37.2,93,65,30,0.00,0.00,7,2,16,0.00
2013-10-11,72.3,54.3,42.2,48.7,45.2,41.0,98,76,38,0.00,0.00,5,2,10,0.00
2013-10-12,76.1,53.1,38.1,49.0,43.5,37.1,97,75,31,0.00,0.00,5,1,10,0.00
2013-10-13,78.4,54.9,37.7,46.8,40.8,31.7,97,67,19,0.00,0.00,7,2,14,0.00
2013-10-14,81.6,55.0,35.8,42.3,37.8,34.9,96,63,19,0.00,0.00,7,1,14,0.00
2013-10-15,88.2,55.4,34.5,39.8,33.2,20.8,95,57,9,0.00,0.00,7,2,13,0.00
2013-10-16,86.7,55.5,33.8,37.4,32.7,24.4,94,54,11,0.00,0.00,6,1,12,0.00
2013-10-17,85.4,57.5,34.9,37.0,34.1,31.2,93,54,15,0.00,0.00,5,1,11,0.00
2013-10-18,83.2,60.1,35.1,43.7,39.1,33.9,96,55,20,0.00,0.00,6,2,11,0.00
2013-10-19,88.7,59.6,35.0,42.4,37.9,26.9,97,57,11,0.00,0.00,5,1,11,0.00
2013-10-20,82.8,53.8,34.5,46.5,40.9,33.5,96,70,22,0.00,0.00,5,1,10,0.00
2013-10-21,76.4,53.1,42.9,50.0,45.6,41.6,98,80,37,0.00,0.00,3,1,7,0.00
2013-10-22,82.3,54.1,40.9,49.2,44.3,39.9,98,76,29,0.00,0.00,3,1,9,0.00
2013-10-23,77.2,52.4,42.0,50.9,45.1,41.4,98,81,39,0.00,0.00,4,1,7,0.00
2013-10-24,69.9,52.3,41.5,48.1,46.2,40.3,97,82,45,0.00,0.00,4,2,10,0.00
2013-10-25,75.3,51.3,37.8,50.6,44.1,37.0,98,81,37,0.00,0.00,3,1,8,0.00
2013-10-26,85.8,55.0,36.1,47.9,41.4,35.4,97,70,20,0.00,0.00,6,1,11,0.00
2013-10-27,66.3,49.2,37.3,48.4,43.3,36.4,98,82,48,0.00,0.00,6,2,14,0.00
2013-10-28,68.4,51.5,35.3,42.9,39.5,34.2,96,69,34,0.00,0.00,4,2,12,0.00
2013-10-29,67.2,52.0,37.9,44.9,42.7,36.8,96,74,42,0.00,0.00,5,2,11,0.00
2013-10-30,69.8,48.9,35.6,44.8,39.4,34.9,97,75,38,0.00,0.00,6,2,13,0.00
2013-10-31,76.9,53.5,34.4,44.8,40.4,33.5,97,68,29,0.00,0.00,4,1,9,0.00
2013-11-1,80.9,52.2,36.1,46.6,41.0,35.3,97,74,24,0.00,0.00,4,1,8,0.00
2013-11-2,78.3,56.4,36.9,47.9,40.1,20.2,97,62,13,0.00,0.00,8,2,21,0.00
2013-11-3,67.0,50.0,33.0,34.9,30.1,21.9,91,54,19,0.00,0.00,7,3,17,0.00
2013-11-4,74.3,49.7,28.8,35.5,27.9,18.7,94,56,12,0.00,0.00,8,2,15,0.00
2013-11-5,79.3,52.4,33.9,39.8,35.0,30.5,93,61,18,0.00,0.00,4,1,10,0.00
2013-11-6,78.6,55.3,39.3,46.6,39.9,33.3,94,63,23,0.00,0.00,3,1,8,0.00
2013-11-7,77.4,55.4,42.4,45.9,40.4,35.6,94,64,23,0.00,0.00,5,1,10,0.00
2013-11-8,78.7,52.4,36.8,49.6,41.2,33.2,97,73,22,0.00,0.00,8,2,19,0.00
2013-11-9,77.0,51.1,33.3,44.7,39.8,32.6,97,72,27,0.00,0.00,4,1,11,0.00
2013-11-10,68.9,49.0,37.0,48.5,42.8,36.0,97,82,45,0.00,0.00,7,2,12,0.00
2013-11-11,69.8,53.4,37.9,47.7,45.3,37.1,97,77,41,0.00,0.00,6,2,10,0.00
2013-11-12,77.1,57.9,44.3,47.5,46.1,43.2,96,68,32,0.00,0.00,4,2,10,0.00
2013-11-13,83.0,55.4,40.1,50.9,45.5,39.4,97,76,28,0.00,0.00,5,1,9,0.00
2013-11-14,66.0,49.3,40.2,52.4,45.5,38.3,98,88,59,0.00,0.00,3,1,9,0.00
2013-11-15,71.5,48.3,32.9,40.5,35.7,31.3,96,70,23,0.00,0.00,6,2,10,0.00
2013-11-16,70.1,50.4,34.6,46.6,39.4,33.6,97,72,33,0.00,0.00,8,3,21,0.00
2013-11-17,65.0,46.8,34.6,46.8,40.8,33.9,97,82,46,0.00,0.00,3,1,9,0.00
2013-11-18,57.9,46.9,35.8,47.4,42.0,35.2,98,84,63,0.00,0.00,5,2,10,0.00
2013-11-19,55.9,53.2,49.0,55.0,52.2,47.5,98,96,94,0.00,0.00,3,1,6,0.00
2013-11-20,62.9,55.6,50.3,57.5,54.0,49.2,98,94,76,0.00,0.00,5,1,9,0.00
2013-11-21,65.8,56.8,48.9,50.6,30.6,8.5,98,51,13,0.00,0.00,17,6,34,0.00
2013-11-22,76.6,64.0,43.0,39.9,8.4,0.0,50,14,5,0.00,0.00,16,8,33,0.00
2013-11-23,71.4,54.1,34.7,34.0,24.9,5.1,91,40,10,0.00,0.00,6,3,16,0.00
2013-11-24,67.3,44.8,29.6,44.9,35.1,28.6,97,76,26,0.00,0.00,4,1,10,0.00
2013-11-25,67.4,45.1,31.9,42.9,37.4,31.4,98,80,32,0.00,0.00,3,1,10,0.00
2013-11-26,65.3,45.7,34.0,44.9,39.0,33.4,98,82,35,0.00,0.00,2,1,5,0.00
2013-11-27,68.3,46.7,32.6,47.3,39.5,32.0,98,80,38,0.00,0.00,2,1,6,0.00
2013-11-28,74.9,48.7,35.4,43.7,39.6,34.9,98,77,26,0.00,0.00,6,1,10,0.00
2013-11-29,73.3,49.1,34.3,45.6,39.7,33.7,98,76,31,0.00,0.00,5,1,10,0.00
2013-11-30,73.1,49.7,37.0,46.2,41.2,36.3,98,78,29,0.00,0.00,4,1,7,0.00
2013-12-1,74.7,50.0,35.1,48.8,42.4,34.6,98,80,34,0.00,0.00,3,1,7,0.00
2013-12-2,68.8,49.6,34.3,49.4,43.1,33.8,98,82,43,0.00,0.00,9,2,19,0.00
2013-12-3,58.8,48.6,31.6,48.7,31.2,20.5,96,56,23,0.00,0.00,10,3,22,0.00
2013-12-4,56.0,36.9,25.4,33.1,25.8,18.5,95,72,23,0.00,0.00,5,1,9,0.00
2013-12-5,53.3,34.3,22.7,31.1,25.1,18.5,95,75,28,0.00,0.00,5,1,10,0.00
2013-12-6,46.1,35.0,22.1,41.2,30.3,20.1,97,85,45,0.00,0.00,4,1,13,0.00
2013-12-7,49.0,37.3,26.5,39.6,28.2,15.3,98,74,33,0.00,0.00,9,3,21,0.00
2013-12-8,50.2,32.8,24.1,28.7,22.9,13.2,94,74,26,0.00,0.00,4,1,8,0.00
2013-12-9,54.7,32.7,20.3,28.8,22.9,12.3,93,74,27,0.00,0.00,4,1,9,0.00
2013-12-10,57.0,34.3,21.4,31.8,25.3,19.5,95,76,25,0.00,0.00,3,1,5,0.00
2013-12-11,61.6,37.4,24.1,35.7,28.8,22.6,96,77,29,0.00,0.00,3,1,8,0.00
2013-12-12,55.8,32.2,24.3,34.9,27.9,22.8,96,87,41,0.00,0.00,2,0,5,0.00
2013-12-13,67.1,43.8,26.1,39.4,33.3,25.0,97,73,28,0.00,0.00,3,1,6,0.00
2013-12-14,68.1,41.9,28.0,40.2,34.0,27.1,97,80,29,0.00,0.00,3,1,6,0.00
2013-12-15,65.5,40.8,27.4,42.1,34.4,26.4,97,82,36,0.00,0.00,3,1,5,0.00
2013-12-16,69.2,44.1,29.0,42.5,35.8,28.3,98,79,31,0.00,0.00,3,1,9,0.00
2013-12-17,67.9,44.8,29.6,42.9,36.5,29.0,98,78,31,0.00,0.00,2,1,5,0.00
2013-12-18,63.2,43.4,32.6,45.4,38.3,32.0,98,85,47,0.00,0.00,3,1,7,0.00
2013-12-19,64.8,49.0,30.6,37.4,29.2,16.7,98,52,18,0.00,0.00,8,4,19,0.00
2013-12-20,69.5,42.0,26.3,33.6,27.7,15.6,95,67,14,0.00,0.00,5,2,8,0.00
2013-12-21,71.5,47.3,34.1,45.2,38.6,32.4,97,77,33,0.00,0.00,6,2,10,0.00
2013-12-22,70.8,46.2,32.2,43.8,38.6,31.7,98,80,37,0.00,0.00,3,1,7,0.00
2013-12-23,71.1,45.7,31.2,44.4,38.2,30.6,98,81,33,0.00,0.00,3,1,6,0.00
2013-12-24,74.2,47.2,33.9,47.1,39.7,33.3,98,81,31,0.00,0.00,3,1,6,0.00
2013-12-25,36.7,33.9,31.3,36.1,33.3,30.8,98,98,98,0.00,0.00,2,0,3,0.00
2013-12-26,70.9,45.8,28.1,39.3,33.8,27.1,97,72,23,0.00,0.00,3,1,6,0.00
2013-12-27,57.5,40.0,29.1,42.1,34.2,28.3,98,83,42,0.00,0.00,3,1,5,0.00
2013-12-28,72.9,42.9,27.0,41.5,34.5,25.9,98,79,27,0.00,0.00,5,1,9,0.00
2013-12-29,70.3,43.1,27.9,35.4,30.6,25.0,97,72,18,0.00,0.00,3,1,8,0.00
2013-12-30,66.7,42.4,26.9,39.4,32.0,25.8,96,74,28,0.00,0.00,3,1,8,0.00
2013-12-31,67.0,43.3,31.4,40.9,35.9,30.7,98,81,32,0.00,0.00,3,1,6,0.00
2014-1-1,69.8,43.6,28.9,42.7,34.9,28.2,98,79,25,0.00,0.00,2,1,6,0.00
2014-1-2,68.5,45.4,31.2,44.5,36.8,30.6,98,78,32,0.00,0.00,2,1,6,0.00